(649760) = 2003 FP55 = 2004 TV56 = 2011 SA119 = 2015 WX10

Discovered at Palomar on 2003-03-26 by NEAT.

Orbit

Orbit type: Main Belt

Note: WebGL enabled browser required.

epoch2024-03-31.0
epoch JD2460400.5
perihelion date2021-05-26.85749
perihelion JD2459361.35750
argument of perihelion (°)287.82514
ascending node (°)335.96914
inclination (°)3.47168
eccentricity0.1969796
perihelion distance (AU)1.8501183
Tisserand w.r.t. Jupiter3.6
ΔV w.r.t. Earth (km/sec)8.5
semimajor axis (AU)2.3039493
mean anomaly (°)292.86657
mean daily motion (°/day)0.28183480
aphelion distance (AU)2.758
period (years)3.5
P-vector [x]-0.10738720
P-vector [y]-0.88771067
P-vector [z]-0.44770275
Q-vector [x]0.99391141
Q-vector [y]-0.10702279
Q-vector [z]-0.02619616
absolute magnitude17.43
phase slope0.15
uncertainty0
referenceE2024-GI3
observations used220
oppositions13
arc length (days)7688
first opposition used2003
last opposition used2024
residual rms (arc-secs)0.70
perturbers coarse indicatorM-v
perturbers precise indicator003Ek
first observation date used2003-03-26.0
last observation date used2024-04-12.0
computer nameMPCLINUX
Minimum Orbit Intersection Distances (in AU)
for orbit epoch: 2460400.5, reference: E2024-GI3
Mercury1.38393
Venus1.12492
Earth0.83795
Mars0.36159
Jupiter2.32739
Saturn6.29735
Uranus15.9873
Neptune27.1668

Observations

219 total observations over interval: 2003 03 26.13542 – 2024 03 11.288262
These data are available for download (format description).

Date (UT) J2000 RA J2000 Dec Magn Location Ref
2003 03 26.13542 10 52 20.50 +05 22 47.2 20.4   644 – Palomar Mountain/NEAT MPS 76355
2003 03 26.15644 10 52 19.30 +05 22 51.9 20.2   644 – Palomar Mountain/NEAT MPS 76355
2003 03 26.17752 10 52 18.13 +05 22 57.1 20.3   644 – Palomar Mountain/NEAT MPS 76355
2003 03 27.14882 10 51 26.81 +05 26 36.1 20.8 V 691 – Steward Observatory, Kitt Peak-Spacewatch MPS 76355
2003 03 27.17581 10 51 25.31 +05 26 42.4 20.3 V 691 – Steward Observatory, Kitt Peak-Spacewatch MPS 76355
2003 03 27.20212 10 51 23.87 +05 26 48.2 20.1 V 691 – Steward Observatory, Kitt Peak-Spacewatch MPS 76355
2004 10 05.16262 00 49 56.82 +09 19 20.1 20.3 V 691 – Steward Observatory, Kitt Peak-Spacewatch MPS 117750
2004 10 05.19024 00 49 55.05 +09 19 11.6 20.4 V 691 – Steward Observatory, Kitt Peak-Spacewatch MPS 117750
2004 10 05.21856 00 49 53.23 +09 19 02.9 20.3 V 691 – Steward Observatory, Kitt Peak-Spacewatch MPS 117750
2004 10 08.16541 00 46 51.02 +09 03 36.9 20.4 V 691 – Steward Observatory, Kitt Peak-Spacewatch MPS 117750
2004 10 08.19302 00 46 49.26 +09 03 28.1 20.1 V 691 – Steward Observatory, Kitt Peak-Spacewatch MPS 117750
2004 10 08.22021 00 46 47.53 +09 03 19.6 20.1 V 691 – Steward Observatory, Kitt Peak-Spacewatch MPS 117750
2008 11 19.26030 04 24 54.02 +27 07 42.4 20.9 V 691 – Steward Observatory, Kitt Peak-Spacewatch MPS 653563
2008 11 19.27794 04 24 52.82 +27 07 40.3 21.2 V 691 – Steward Observatory, Kitt Peak-Spacewatch MPS 653563
2008 11 19.29558 04 24 51.56 +27 07 39.0 20.9 V 691 – Steward Observatory, Kitt Peak-Spacewatch MPS 653563
2010 02 16.27635 11 29 33.86 +02 41 08.4 20.5 V 691 – Steward Observatory, Kitt Peak-Spacewatch MPS 653563
2010 02 16.29397 11 29 33.05 +02 41 11.2 20.5 V 691 – Steward Observatory, Kitt Peak-Spacewatch MPS 653563
2010 02 16.31158 11 29 32.31 +02 41 14.2 20.2 V 691 – Steward Observatory, Kitt Peak-Spacewatch MPS 653563
2010 03 12.22542 11 06 46.76 +04 16 55.1 19.8 V 703 – Catalina Sky Survey MPS 653563
2010 03 12.23346 11 06 46.29 +04 16 57.8 20.5 V 703 – Catalina Sky Survey MPS 653563
2010 03 12.23921 11 06 45.97 +04 16 59.6 20.3 V 703 – Catalina Sky Survey MPS 653563
2010 03 12.24504 11 06 45.54 +04 17 01.3 19.9 V 703 – Catalina Sky Survey MPS 653563
2010 03 12.31228 11 06 41.11 +04 17 19.9 19.8 V G96 – Mt. Lemmon Survey MPS 653563
2010 03 12.32007 11 06 40.60 +04 17 21.8 20.4 V G96 – Mt. Lemmon Survey MPS 653563
2010 03 12.32782 11 06 40.10 +04 17 24.6 19.9 V G96 – Mt. Lemmon Survey MPS 653563
2010 03 12.33561 11 06 39.56 +04 17 26.4 19.9 V G96 – Mt. Lemmon Survey MPS 653563
2011 09 25.01594 01 01 32.02 +10 14 16.2 19.8 V 198 – Wildberg MPS 392953
2011 09 25.01735 01 01 31.94 +10 14 16.0 19.7 V 198 – Wildberg MPS 392953
2011 09 25.02017 01 01 31.77 +10 14 15.7 20.0 V 198 – Wildberg MPS 392953
2011 09 25.02229 01 01 31.64 +10 14 14.9 20.1 V 198 – Wildberg MPS 392953
2011 09 25.02794 01 01 31.32 +10 14 13.4 19.8 V 198 – Wildberg MPS 392953
2011 09 25.03288 01 01 31.03 +10 14 12.4 20.0 V 198 – Wildberg MPS 392953
2011 09 25.03782 01 01 30.74 +10 14 11.1 19.9 V 198 – Wildberg MPS 392953
2011 09 25.04347 01 01 30.42 +10 14 09.9 19.5 V 198 – Wildberg MPS 392953
2011 09 25.86067 01 00 42.41 +10 10 42.7 19.9 V 198 – Wildberg MPS 392953
2011 09 25.86209 01 00 42.30 +10 10 42.2 20.1 V 198 – Wildberg MPS 392953
2011 09 25.86492 01 00 42.15 +10 10 41.2 20.0 V 198 – Wildberg MPS 392953
2011 09 25.86775 01 00 41.99 +10 10 40.8 19.9 V 198 – Wildberg MPS 392953
2011 09 25.87129 01 00 41.76 +10 10 40.2 19.9 V 198 – Wildberg MPS 392953
2011 09 25.87341 01 00 41.65 +10 10 39.6 19.8 V 198 – Wildberg MPS 392953
2011 09 25.87411 01 00 41.58 +10 10 39.4 20.0 V 198 – Wildberg MPS 392953
2011 09 25.87906 01 00 41.29 +10 10 38.2 20.1 V 198 – Wildberg MPS 392953
2011 09 25.88400 01 00 40.99 +10 10 36.8 20.2 V 198 – Wildberg MPS 392953
2011 09 25.88612 01 00 40.86 +10 10 36.5 20.2 V 198 – Wildberg MPS 392953
2011 09 25.92712 01 00 38.38 +10 10 25.8 20.6 V 198 – Wildberg MPS 392953
2011 09 29.31718 00 57 13.35 +09 55 17.9 20.2 V G96 – Mt. Lemmon Survey MPS 392953
2011 09 29.32521 00 57 12.88 +09 55 15.7 20.3 V G96 – Mt. Lemmon Survey MPS 392953
2011 09 29.33319 00 57 12.38 +09 55 13.7 20.0 V G96 – Mt. Lemmon Survey MPS 392953
2011 09 29.34118 00 57 11.84 +09 55 11.1 20.1 V G96 – Mt. Lemmon Survey MPS 392953
2011 09 30.83691 00 55 40.05 +09 48 04.9 20.0 V 198 – Wildberg MPS 394350
2011 09 30.84752 00 55 39.38 +09 48 01.7 19.8 V 198 – Wildberg MPS 394350
2011 09 30.85813 00 55 38.71 +09 47 58.6 20.0 V 198 – Wildberg MPS 394350
2011 09 30.86875 00 55 38.04 +09 47 55.3 20.0 V 198 – Wildberg MPS 394350
2012 12 23.55794 07 52 38.565 +24 59 25.12 21.3 w F51 – Pan-STARRS 1, Haleakala MPS 653563
2012 12 23.57240 07 52 37.741 +24 59 27.20 21.3 w F51 – Pan-STARRS 1, Haleakala MPS 653563
2012 12 23.60121 07 52 36.110 +24 59 31.31 21.4 w F51 – Pan-STARRS 1, Haleakala MPS 653563
2013 01 13.37772 07 29 50.31 +25 44 31.5 21.0 V G96 – Mt. Lemmon Survey MPS 653563
2013 01 13.38315 07 29 49.95 +25 44 32.2 20.7 V G96 – Mt. Lemmon Survey MPS 653563
2013 01 13.38860 07 29 49.52 +25 44 33.0 21.5 V G96 – Mt. Lemmon Survey MPS 653563
2013 01 13.39406 07 29 49.12 +25 44 32.6 21.5 V G96 – Mt. Lemmon Survey MPS 653563
2015 11 20.47330 04 25 28.15 +27 08 52.1 21.3 V G96 – Mt. Lemmon Survey MPS 653688
2015 11 20.47551 04 25 27.97 +27 08 50.9 22.1 V G96 – Mt. Lemmon Survey MPS 653688
2015 11 20.47772 04 25 27.82 +27 08 51.0 21.5 V G96 – Mt. Lemmon Survey MPS 653689
2015 11 20.47992 04 25 27.67 +27 08 50.9 21.5 V G96 – Mt. Lemmon Survey MPS 653689
2015 11 22.28581 04 23 24.14 +27 05 03.8 20.9 V G96 – Mt. Lemmon Survey MPS 653689
2015 11 22.29118 04 23 23.82 +27 05 02.8 21.6 V G96 – Mt. Lemmon Survey MPS 653689
2015 11 22.29656 04 23 23.37 +27 05 02.1 20.8 V G96 – Mt. Lemmon Survey MPS 653689
2015 11 22.30194 04 23 22.98 +27 05 01.7 20.9 V G96 – Mt. Lemmon Survey MPS 653689
2015 12 03.30655 04 10 36.71 +26 35 00.9 20.9 V G96 – Mt. Lemmon Survey MPS 653563
2015 12 03.31063 04 10 36.40 +26 34 59.9 21.2 V G96 – Mt. Lemmon Survey MPS 653563
2015 12 03.31470 04 10 36.11 +26 34 59.2 21.1 V G96 – Mt. Lemmon Survey MPS 653563
2015 12 03.31879 04 10 35.79 +26 34 58.7 21.2 V G96 – Mt. Lemmon Survey MPS 653563
2016 01 08.34550 03 42 20.684 +24 32 34.75 22.4 w F51 – Pan-STARRS 1, Haleakala MPS 665543
2016 01 08.35914 03 42 20.434 +24 32 32.76 21.8 w F51 – Pan-STARRS 1, Haleakala MPS 665543
2016 01 08.37275 03 42 20.190 +24 32 30.68 22.1 w F51 – Pan-STARRS 1, Haleakala MPS 665543
2017 01 02.58508 11 33 16.519 +03 24 12.95 21.7 w F51 – Pan-STARRS 1, Haleakala MPS 755925
2017 01 02.59683 11 33 16.852 +03 24 09.66 21.3 w F51 – Pan-STARRS 1, Haleakala MPS 755925
2017 01 02.60857 11 33 17.198 +03 24 06.89 21.6 w F51 – Pan-STARRS 1, Haleakala MPS 755925
2017 01 02.62040 11 33 17.527 +03 24 03.95 21.7 w F51 – Pan-STARRS 1, Haleakala MPS 755925
2017 02 21.43301 11 24 34.763 +03 01 22.99 20.2 w F51 – Pan-STARRS 1, Haleakala MPS 768228
2017 02 21.44501 11 24 34.111 +03 01 25.53 20.3 w F51 – Pan-STARRS 1, Haleakala MPS 768228
2017 02 21.45702 11 24 33.461 +03 01 28.03 20.3 w F51 – Pan-STARRS 1, Haleakala MPS 768228
2017 02 21.46905 11 24 32.802 +03 01 30.57 20.3 w F51 – Pan-STARRS 1, Haleakala MPS 768228
2017 02 21.50324 11 24 30.70 +03 01 36.4 20.8 V G96 – Mt. Lemmon Survey MPS 768228
2017 02 21.50913 11 24 30.37 +03 01 38.2 21.0 V G96 – Mt. Lemmon Survey MPS 768228
2017 02 21.51662 11 24 29.95 +03 01 39.7 20.6 V G96 – Mt. Lemmon Survey MPS 768228
2017 02 21.52994 11 24 29.26 +03 01 41.9 20.1 V G96 – Mt. Lemmon Survey MPS 768228
2017 03 02.19177 11 16 17.86 +03 36 02.3 20.4 r G45 – Space Surveillance Telescope, Atom Site MPS 772098
2017 03 02.19666 11 16 17.50 +03 36 03.7 20.3 r G45 – Space Surveillance Telescope, Atom Site MPS 772098
2017 03 02.20158 11 16 17.24 +03 36 05.4 19.9 r G45 – Space Surveillance Telescope, Atom Site MPS 772098
2017 03 02.20658 11 16 16.92 +03 36 07.2 20.6 r G45 – Space Surveillance Telescope, Atom Site MPS 772098
2017 03 02.21150 11 16 16.60 +03 36 08.6 20.8 r G45 – Space Surveillance Telescope, Atom Site MPS 772098
2017 03 03.67809 11 14 46.59 +03 42 35.3 20.1 R D29 – Purple Mountain Observatory, XuYi Station MPS 775924
2017 03 03.69937 11 14 45.26 +03 42 41.1 20.4 R D29 – Purple Mountain Observatory, XuYi Station MPS 775924
2017 03 03.72065 11 14 43.89 +03 42 46.8 19.9 R D29 – Purple Mountain Observatory, XuYi Station MPS 775924
2017 03 06.66975 11 11 40.07 +03 56 06.9 19.8 R D29 – Purple Mountain Observatory, XuYi Station MPS 775924
